Location: Melbourne
(37.8170°S, 144.9670°E)
Time: 04:02:56
(UTC+11:00)

ADEOS Rocket - Visible Passes

Search period start: 27 March 2017 00:00
Search period end: 05 April 2017 23:00
Orbit: 859 x 1307 km, 98.7° (Epoch: 24 March)

Date Brightness Start Highest point End Pass type
(mag) Time Alt. Az. Time Alt. Az. Time Alt. Az.
27 Mar 5.6 03:15:36 13° S 03:15:36 13° S 03:16:09 10° SSW visible
28 Mar 5.8 02:26:06 13° S 02:26:06 13° S 02:26:50 10° S visible
29 Mar 5.7 03:23:35 11° SSW 03:23:35 11° SSW 03:23:53 10° SSW visible
30 Mar 5.8 02:34:06 13° S 02:34:06 13° S 02:34:43 10° S visible
31 Mar 6.0 01:44:37 10° SSE 01:44:37 10° SSE 01:44:37 10° SSE visible
31 Mar 5.8 03:31:35 10° SSW 03:31:35 10° SSW 03:31:37 10° SSW visible
01 Apr 5.8 02:42:06 12° S 02:42:06 12° S 02:42:34 10° S visible
02 Apr 6.0 01:52:37 10° SSE 01:52:37 10° SSE 01:52:43 10° SSE visible
03 Apr 5.9 01:50:07 11° S 01:50:07 11° S 01:50:25 10° S visible
04 Apr 6.0 01:00:39 10° S 01:00:39 10° S 01:00:45 10° S visible
05 Apr 5.9 01:58:08 10° S 01:58:08 10° S 01:58:13 10° S visible
